Location: Capon Springs and Farms
(39.1310°N, 78.4814°W)
Time: 04:05:58
(UTC-04:00)

N. Korean satellite - Visible Passes

Search period start: 22 March 2019 00:00
Search period end: 01 April 2019 00:00
Orbit: 456 x 510 km, 97.2° (Epoch: 21 March)

Date Brightness Start Highest point End Pass type
(mag) Time Alt. Az. Time Alt. Az. Time Alt. Az.
23 Mar 9.8 06:35:05 10° NE 06:37:38 18° E 06:40:10 10° SE visible
27 Mar 9.9 06:29:26 10° NE 06:31:42 16° E 06:33:59 10° SE visible
31 Mar 10.0 06:23:50 10° ENE 06:25:45 14° E 06:27:39 10° SE visible
